{"data":{"norad_id":38042,"intl_designator":"2011-080C","name":"GLOBALSTAR M082","alt_names":[],"object_type":"PAYLOAD","status":"ACTIVE","operator":null,"country":"GLOB","launch_date":"2011-12-28","launch_site_code":"TYMSC","launch_vehicle":null,"mission":null,"orbit_class":"UNKNOWN","rcs_meters":4.6934,"size_class":null,"mass_kg":null,"dimensions":null,"purposes":["comms"],"wikipedia_slug":null,"has_3d_model":false,"image_url":null,"decayed_at":null,"tle_current":{"epoch":"2026-05-25T03:44:41.823168Z","epoch_age_seconds":62390,"freshness":"FRESH","line1":"1 38042U 11080C   26145.15603962 -.00000101  00000+0  15101-4 0  9991","line2":"2 38042  52.0094  44.6042 0000393  75.3454  89.3088 12.62269415666688","mean_motion":12.62269415,"eccentricity":3.93e-5,"inclination_deg":52.0094,"raan_deg":44.6042,"arg_perigee_deg":75.3454,"mean_anomaly_deg":89.3088,"bstar":1.5101e-5,"rev_number":66668,"period_min":114.08024173667,"perigee_km":1413.2851143187,"apogee_km":1413.8975441653,"semimajor_km":7791.728329242,"source":"CELESTRAK","updated_at":"2026-05-25T13:38:23.044933Z"}}}